Precipitable_Water
0.53 0.55 0.54 0.54 0.59 0.67 0.70 0.70 0.70 0.70 0.71 0.72 0.70 0.69 0.66 0.66 0.67 0.68 0.67 0.66 0.66 0.68 0.84 1.08 1.13 1.36 1.35
0.56 0.51 0.53 0.58 0.59 0.61 0.66 0.71 0.72 0.74 0.74 0.75 0.75 0.74 0.73 0.71 0.73 0.76 0.77 0.74 0.71 0.66 0.73 0.93 1.14 1.21 1.48
0.51 0.58 0.56 0.61 0.58 0.61 0.63 0.64 0.68 0.70 0.73 0.75 0.77 0.79 0.79 0.80 0.80 0.80 0.83 0.82 0.77 0.80 0.81 0.90 1.28 1.19 1.18
0.47 0.54 0.54 0.61 0.62 0.57 0.56 0.62 0.59 0.62 0.70 0.78 0.78 0.80 0.82 0.85 0.87 0.90 0.95 0.94 0.89 0.84 0.92 1.00 1.32 1.31 1.22
0.45 0.51 0.55 0.53 0.56 0.61 0.59 0.60 0.59 0.63 0.63 0.68 0.73 0.80 0.86 0.94 0.96 1.00 1.02 1.04 1.03 0.99 1.04 1.22 1.35 1.31 1.31
0.48 0.50 0.55 0.55 0.58 0.62 0.60 0.57 0.52 0.69 0.65 0.61 0.71 0.73 0.83 0.94 0.97 1.01 1.05 1.02 1.14 1.17 1.20 1.24 1.24 1.28 1.26
0.47 0.49 0.54 0.60 0.57 0.56 0.57 0.57 0.55 0.64 0.66 0.60 0.71 0.71 0.77 0.85 0.93 0.99 1.04 1.07 1.12 1.14 1.17 1.18 1.18 1.19 1.20
0.50 0.53 0.57 0.61 0.60 0.57 0.55 0.57 0.60 0.63 0.67 0.57 0.70 0.69 0.74 0.75 0.83 0.89 0.98 1.02 1.04 1.06 1.11 1.14 1.15 1.15 1.16
0.48 0.52 0.54 0.59 0.62 0.59 0.55 0.52 0.51 0.59 0.65 0.59 0.64 0.63 0.70 0.69 0.74 0.78 0.83 0.87 0.97 0.98 1.00 1.02 1.08 1.09 1.11
0.39 0.40 0.43 0.48 0.53 0.58 0.57 0.55 0.55 0.55 0.65 0.59 0.62 0.62 0.57 0.69 0.69 0.70 0.74 0.77 0.78 0.85 0.90 0.91 0.93 0.97 0.98
0.40 0.40 0.40 0.39 0.38 0.43 0.53 0.53 0.55 0.55 0.65 0.64 0.60 0.61 0.59 0.60 0.66 0.68 0.67 0.66 0.69 0.73 0.77 0.81 0.84 0.84 0.81
0.36 0.38 0.38 0.38 0.40 0.41 0.43 0.46 0.53 0.57 0.61 0.64 0.60 0.59 0.57 0.57 0.58 0.66 0.68 0.68 0.65 0.64 0.67 0.72 0.74 0.75 0.77
0.31 0.35 0.39 0.41 0.41 0.39 0.40 0.40 0.40 0.44 0.46 0.52 0.55 0.56 0.57 0.53 0.55 0.61 0.63 0.66 0.68 0.66 0.65 0.64 0.64 0.66 0.64
0.30 0.34 0.35 0.37 0.42 0.43 0.38 0.37 0.35 0.34 0.38 0.39 0.39 0.43 0.42 0.44 0.45 0.47 0.56 0.58 0.64 0.62 0.61 0.62 0.63 0.61 0.61
0.28 0.29 0.31 0.35 0.36 0.40 0.42 0.41 0.37 0.35 0.36 0.41 0.41 0.39 0.36 0.36 0.37 0.41 0.44 0.49 0.51 0.50 0.47 0.47 0.55 0.61 0.62
0.28 0.29 0.30 0.31 0.32 0.37 0.41 0.40 0.38 0.36 0.36 0.39 0.38 0.35 0.35 0.36 0.39 0.34 0.34 0.37 0.40 0.41 0.39 0.34 0.33 0.38 0.45
0.30 0.29 0.31 0.33 0.33 0.32 0.33 0.37 0.39 0.42 0.41 0.37 0.35 0.35 0.31 0.27 0.34 0.41 0.34 0.33 0.33 0.31 0.33 0.32 0.30 0.29 0.31
Wind_Speed
25 24 24 24 23 24 25 26 27 29 31 33 35 38 41 43 46 49 52 55 58 60 60 60 59 58 63
28 27 26 25 25 24 24 26 27 29 31 33 35 37 40 43 46 48 51 54 58 59 60 59 58 59 50
29 28 28 27 27 26 26 26 26 29 30 32 33 35 37 41 44 46 47 51 52 54 55 55 53 52 47
31 31 30 29 29 29 28 28 28 29 29 29 31 32 34 37 36 36 37 38 43 46 49 51 45 46 51
31 31 30 30 30 30 30 30 30 30 29 29 31 30 31 30 24 24 25 22 26 34 40 45 40 36 40
32 33 33 32 33 31 31 31 29 28 29 30 30 28 27 22 18 22 19 16 12 17 25 34 40 37 33
34 33 34 33 33 34 33 32 31 32 31 29 27 25 23 19 17 16 14 11 10 13 21 25 30 35 36
35 35 34 35 35 35 36 35 34 33 30 27 26 25 23 19 18 15 12 9 10 10 13 22 26 29 34
37 38 37 37 36 36 35 34 32 31 30 29 27 26 23 21 20 20 16 13 10 10 12 16 20 25 29
38 38 37 37 36 36 36 35 34 32 30 29 27 25 23 21 20 20 21 21 18 16 16 17 19 22 25
37 36 36 37 37 36 35 34 33 32 31 30 28 26 24 23 21 21 20 20 22 23 23 23 22 24 25
35 35 35 34 35 35 35 35 34 34 31 29 28 26 26 24 23 21 21 20 21 21 24 26 27 27 28
34 34 34 33 33 32 32 33 33 31 30 29 29 28 27 25 24 22 21 22 22 21 22 24 25 28 30
34 33 32 31 31 31 30 29 29 28 28 27 27 27 26 26 25 24 23 21 21 21 22 23 24 25 26
32 31 31 30 29 28 28 28 28 28 28 28 27 27 27 26 24 23 22 22 21 21 20 20 22 24 26
31 30 29 28 28 28 27 27 27 26 27 29 28 27 25 25 24 23 22 21 20 20 20 20 20 20 20
29 28 27 27 26 25 26 26 26 27 26 25 25 25 26 25 25 25 23 22 21 21 21 21 21 21 20
Wind_Direction
285 286 289 290 288 286 285 285 287 287 288 286 285 283 279 278 274 272 268 264 260 256 252 249 246 244 243
284 283 285 286 287 288 288 288 290 291 292 292 290 290 287 283 280 275 271 266 262 256 250 246 244 240 245
281 281 281 282 283 286 287 289 291 295 297 296 297 296 296 292 285 279 275 270 261 253 245 239 235 235 234
280 279 278 279 280 283 285 288 291 296 296 300 303 302 303 302 292 284 279 273 261 249 241 228 229 230 229
279 278 276 277 279 281 284 287 289 293 294 298 305 307 311 313 299 296 293 279 264 247 228 220 220 221 225
282 279 276 276 279 278 282 286 287 288 294 297 302 304 309 308 306 312 308 281 271 222 218 214 220 223 225
282 280 277 275 276 277 279 282 283 287 290 292 296 300 304 292 302 316 319 284 266 242 224 219 221 222 226
282 280 278 277 274 275 277 279 280 282 284 286 289 294 295 286 283 289 306 311 271 255 236 226 227 229 232
283 280 278 277 275 275 275 276 277 278 278 280 284 286 289 284 274 272 274 273 273 257 243 237 234 235 236
283 281 278 277 275 273 273 272 273 274 276 275 278 280 281 280 276 272 266 263 259 255 247 244 242 236 236
285 283 279 276 274 273 271 270 269 269 271 272 272 273 272 274 274 271 269 265 259 255 251 248 247 243 241
286 284 281 279 275 272 271 268 269 267 269 267 266 267 268 268 269 270 266 264 261 257 253 251 249 249 248
285 283 280 278 276 274 273 267 266 263 263 264 265 264 263 264 265 266 266 262 260 258 257 255 253 252 252
284 282 281 279 276 272 271 269 265 262 261 263 263 263 261 260 261 261 261 260 259 260 261 258 255 254 253
283 281 279 277 275 273 268 268 263 262 262 262 263 263 259 257 258 258 257 257 258 258 261 261 259 258 256
281 279 277 277 275 271 268 265 264 263 263 263 262 258 257 254 252 254 254 254 255 256 260 259 260 260 259
278 277 276 275 273 271 268 264 263 261 263 261 259 255 254 253 253 249 251 254 256 257 257 258 259 261 259